Location: Unspecified
(0.0000°N, 0.0000°E)
Time: 23:51:13
(UTC+00:00)

Vanguard 2 - Pass Details

Date: 09 October 2020
Orbit: 554 x 2937 km, 32.9° (Epoch: 28 October)

Event Time Altitude Azimuth Distance (km) Brightness Sun altitude
Rises 20:46:42 0° 229° (SW) 5,958 12.7 -44.5°
Reaches altitude 10° 20:50:16 10° 227° (SW) 5,184 12.2 -45.4°
Enters shadow 21:04:29 68° 184° (S) 3,066 10.2 -48.9°
Maximum altitude 21:06:47 73° 143° (SE) 3,021 - -49.5°
Drops below altitude 10° 21:24:03 10° 62° (ENE) 5,406 - -53.7°
Sets 21:27:51 0° 60° (ENE) 6,215 - -54.6°
